Location: Jackson Park
(37.2862°N, 79.9123°W)
Time: 20:44:01
(UTC+00:00)

Vanguard 2 Rocket - Pass Details

Date: 15 May 2026
Orbit: 553 x 3286 km, 32.9° (Epoch: 6 June)

Event Time Altitude Azimuth Distance (km) Brightness Sun altitude
Rises 13:10:40 0° 190° (S) 4,336 10.3 33.9°
Reaches altitude 10° 13:14:16 10° 173° (S) 3,776 10.2 34.6°
Maximum altitude 13:21:15 20° 131° (SE) 3,747 11.0 36.0°
Drops below altitude 10° 13:30:45 10° 91° (E) 5,367 12.1 37.9°
Sets 13:37:21 0° 78° (ENE) 6,816 12.2 39.2°
